Regional Weather Roundup
Issued by NWS

Home | Current Version | Previous Version | Graphics & Text | Print | Product List | Glossary On
Versions: 1 2 3 4 5 6 7 8 9 10 11 12 13 14 15 16 17 18 19 20 21 22 23 24 25 26 27 28 29 30 31 32 33 34 35 36 37 38 39 40 41 42 43 44 45 46 47 48 49 50
000
ASUS43 KFSD 280010
RWRSD

WEATHER ROUNDUP FOR SOUTH DAKOTA
NATIONAL WEATHER SERVICE SIOUX FALLS SD
700 PM CDT WED JUL 27 2016

NOTE: "FAIR" INDICATES FEW OR NO CLOUDS BELOW 12,000 FEET WITH NO
SIGNIFICANT WEATHER AND/OR OBSTRUCTIONS TO VISIBILITY.


SDZ001>005-009-010-012>017-280100-
NORTHWEST AND NORTH CENTRAL SOUTH DAKOTA

CITY           SKY/WX    TMP DP  RH WIND       PRES   REMARKS
BUFFALO          N/A     77  53  43 E9        30.06S
FAITH            N/A     73  58  59 NE10      30.09F
MOBRIDGE       LGT RAIN  75  62  64 NE9       30.03F
$$

SDZ012>016-024>037-041>051-057-063-072>074-280100-
SOUTHWEST AND SOUTH CENTRAL SOUTH DAKOTA

CITY           SKY/WX    TMP DP  RH WIND       PRES   REMARKS
RAPID CTY ARPT SUNNY     79  59  50 NE7       30.10F
PIERRE         LGT RAIN  76  63  64 E8        30.04R
CUSTER         SUNNY     70  58  65 NE12      30.22F
ELLSWORTH AFB  SUNNY     79  60  52 E9        30.10F
PHILIP         CLOUDY    68  61  78 SE5       30.06S
PINE RIDGE     SUNNY     81  61  50 E12       30.09S
WINNER         FAIR      79  65  62 N8        30.06R
$$

SDZ004>011-016>023-039-040-280100-
NORTHEAST SOUTH DAKOTA

CITY           SKY/WX    TMP DP  RH WIND       PRES   REMARKS
ABERDEEN       CLOUDY    77  58  51 N9        30.06R
WATERTOWN      SUNNY     78  59  51 N14       30.04R
BROOKINGS      MOSUNNY   77  63  61 N12       30.01S
SISSETON         N/A     77  58  51 NE9       30.01S
$$

SDZ017-020-022-023-036>040-048>070-280100-
SOUTHEAST SOUTH DAKOTA

CITY           SKY/WX    TMP DP  RH WIND       PRES   REMARKS
SIOUX FALLS    MOSUNNY   79  63  57 N14       29.98S
HURON          MOSUNNY   80  62  54 NE13      30.00S
CHAMBERLAIN    PTSUNNY   82  65  56 N5        30.04R
MITCHELL       CLOUDY    82  64  54 NE7       30.00S
YANKTON        PTSUNNY   82  66  57 N9        29.95R
$$

ABBREVIATIONS USED IN REMARKS
   TC - TEMPERATURE IN CELSIUS
  WCI - WIND CHILL INDEX
   HX - HEAT INDEX
  VSB - VISIBILITY





USA.gov is the U.S. government's official web portal to all federal, state and local government web resources and services.